DELTA 1 DEB, 29185

Orbit data source: Space-Track

DELTA 1 DEB, 29185 is space debris in LEO originally from a launch on Thu, 11 Jan 1968 UTC launched from the Air Force Western Test Range (AFWTR). Debris objects in space refer to the collection of defunct objects orbiting the Earth. Examples of debris include non-operational satellites, rocket bodies, and fragments generated from explosions, collisions, or faulty payload assembly.

Loading next visibility...
Identifier
29185, 1968-002J
Orbit
LEO
Country
Flag of USUS
Related business
Manufacturer
Unknown
Mission
Spacecraft
Bus & Motor
Unknown
Mass
Unknown
Launch date (UTC)
1968-01-11 (58 years ago)
Launch vehicle
Unknown
Launch site
Air Force Western Test Range (AFWTR)
Object type
Payload
Rocket body
Debris
Shape & HBR
Unknown
Radar Cross Section
Small (<0.1 m²)

Expand to show TLE details & history
Last TLE update: 6 days ago

TLE from 6 days ago
0 DELTA 1 DEB
1 29185U 68002J   25236.96637163  .00000692  00000-0  16295-2 0  9992
2 29185 105.7909 287.4516 0252701  93.0004 270.0032 13.19924515428024
Epoch: 2025-08-24T23:11Z
TLE epoch observation values (Epoch: 2025-08-24T23:11:34.508Z)
Latitude
-0.00007°
Longitude
-33.92137°
Altitude
1,192.306 km
Speed
7.255 km/s
True Right ascension
19h 09m 48s
True Declination
0° 00' 00"
Sunlit
Object was in full shadow at epoch
Visualization orbit readout
Latitude
Unknown
Longitude
Unknown
Altitude
Unknown
Speed
Unknown
Apparent Right ascension
Unknown
Apparent Declination
Unknown
Sunlit
N/A
Visualization observer readout
Local Sidereal Time
17:57:02
Azimuth
Unknown
Elevation
Unknown
Doppler factor
Unknown
Orbital elements
Apogee altitude
1,373.811 km
Perigee altitude
991.682 km
Semi-major axis
7,560.884 km
Eccentricity
0.02527
Inclination
105.7909°
RAAN
287.4516°
Arg. of periapsis
93.0004°
True anomaly
267.10869°
Mean anomaly
270.0032°
Eccentric anomaly
268.55579°
Mean motion
3.3013 °/min
Orbital period
109.05 mins
BSTAR
0.0016295
Loading maneuver chart data...
Computing Atmospheric mass density...
Loading historical data...
Loading historical data...
Loading historical data...
Loading historical data...
Loading historical data...
Loading historical data...
Loading historical data...

Documentation

Showing up to 5 results
|